Location: Stendal
(52.5994°N, 11.8400°E)
Time: 09:07:53
(UTC+01:00)

Envisat - Visible Passes

Search period start: 27 January 2021 00:00
Search period end: 06 February 2021 00:00
Orbit: 764 x 766 km, 98.1° (Epoch: 26 January)

Date Brightness Start Highest point End Pass type
(mag) Time Alt. Az. Time Alt. Az. Time Alt. Az.
27 Jan 6.2 04:23:07 10° ENE 04:24:33 11° E 04:25:58 10° E visible
27 Jan 3.4 05:59:30 10° NNE 06:04:35 66° ESE 06:09:38 10° S visible
27 Jan 3.9 17:20:05 10° S 17:25:04 55° W 17:30:05 10° NNW visible
28 Jan 4.7 05:22:56 10° NNE 05:27:34 34° E 05:32:10 10° SSE visible
28 Jan 3.3 07:01:55 10° N 07:06:43 43° WNW 07:11:28 10° SW visible
28 Jan 5.9 18:24:20 10° SW 18:27:50 18° W 18:31:21 10° NW visible
29 Jan 5.7 04:46:54 10° NE 04:50:22 18° E 04:53:48 10° SE visible
29 Jan 2.9 06:24:54 10° NNE 06:30:01 80° WNW 06:35:06 10° SSW visible
29 Jan 4.9 17:46:00 10° SSW 17:50:37 35° W 17:55:17 10° NNW visible
30 Jan 3.8 05:48:07 10° NNE 05:53:08 54° E 05:58:06 10° S visible
30 Jan 6.4 18:52:04 10° W 18:53:38 11° W 18:55:14 10° WNW visible
31 Jan 5.0 05:11:41 10° NNE 05:16:04 28° E 05:20:25 10° SSE visible
31 Jan 3.1 06:50:25 10° N 06:55:21 51° WNW 07:00:15 10° SW visible
31 Jan 5.7 18:12:20 10° SW 18:16:17 22° W 18:20:15 10° NW visible
01 Feb 6.0 04:35:56 10° NE 04:38:47 15° E 04:41:37 10° ESE visible
01 Feb 3.0 06:13:28 10° NNE 06:18:36 85° ESE 06:23:41 10° SSW visible
01 Feb 4.5 17:34:20 10° SSW 17:39:08 42° W 17:43:59 10° NNW visible
02 Feb 4.2 05:36:47 10° NNE 05:41:40 44° E 05:46:31 10° S visible
02 Feb 3.6 07:16:03 10° N 07:20:36 34° WNW 07:25:07 10° SW visible
02 Feb 6.2 18:39:23 10° WSW 18:42:02 14° W 18:44:42 10° NW visible
03 Feb 5.3 05:00:29 10° NE 05:04:32 23° E 05:08:34 10° SE visible
03 Feb 3.0 06:38:56 10° N 06:43:58 62° WNW 06:48:59 10° SSW visible
03 Feb 5.4 18:00:28 10° SSW 18:04:44 27° W 18:09:04 10° NW visible
04 Feb 6.2 04:25:16 10° ENE 04:27:11 12° E 04:29:06 10° ESE visible
04 Feb 3.3 06:02:04 10° NNE 06:07:10 71° ESE 06:12:14 10° S visible
05 Feb 4.6 05:25:28 10° NNE 05:30:10 36° E 05:34:51 10° SSE visible
05 Feb 3.4 07:04:31 10° N 07:09:16 40° WNW 07:13:58 10° SW visible
05 Feb 6.0 18:27:08 10° SW 18:30:27 17° W 18:33:47 10° NW visible
